[[{"header":{"parameterUnit":"m.s-1","parameterCategory":2,"la1":30.2991,"la2":30.254,"lo1":-89.0895,"lo2":-89.0444,"dy":0.0017,"dx":0.0017,"nx":28,"ny":28,"refTime":"2023-10-01T03:00:00:Z","depth":"0","parameterNumber":2,"parameterNumberName":"U-component_of_CURRENTS"},"data":[0,0,0,0,0,0,0,0,0,0,0,0,0,0,0,0,0,0,0,0,0,0,0,0,0,0,0,0,0,0,0,0,0,0,0,0,0,0,0,0,0,0,0,0,0,0,0,0,0,0,0,0,0,0,0,0,0,0,0.1955,0.1955,0,0.191,0.1909,0.1908,0.1878,0.1878,0.1878,0.1878,0.1828,0.1827,0.1825,0,0,0,0,0,0,0,0,0,0,0,0,0,0.1965,0.1965,0.1955,0.1954,0.1954,0.191,0.1909,0.1908,0.1878,0.1878,0.1878,0.1878,0.1829,0.1827,0.1825,0,0,0,0,0,0,0,0,0,0,0,0,0,0.1942,0.1965,0.1955,0.1936,0.1934,0.191,0.1909,0.1908,0.1878,0.1878,0.1878,0.1878,0.1829,0.1827,0.1825,0.181,0,0,0.1819,0.1818,0,0,0,0,0,0,0,0,0.1943,0.1941,0.1939,0.1937,0.1935,0.1902,0.1894,0.1876,0.1878,0.1896,0.1878,0.1878,0.1854,0.185,0.1837,0.1808,0.1806,0.1818,0.1817,0.1816,0.1816,0,0,0,0,0,0,0,0.1945,0.1943,0.1934,0.1939,0.1936,0.1913,0.191,0.189,0.1873,0.1895,0.1893,0.1893,0.1853,0.1839,0.1836,0.1805,0.1818,0.1817,0.1815,0.1814,0.1805,0.1806,0,0,0,0,0,0,0.1959,0.1945,0.1935,0.1933,0.1943,0.1913,0.191,0.191,0.1873,0.1869,0.1893,0.1892,0.1843,0.1838,0.1834,0.184,0.1816,0.1814,0.1813,0.1804,0.1805,0.1806,0,0,0,0,0,0,0.1959,0.1959,0.1937,0.194,0.1936,0.1914,0.1914,0.1909,0.1903,0.1872,0.1867,0.1892,0.1843,0.1837,0.1828,0.1837,0.1813,0.1811,0.1802,0.1804,0.1805,0.1836,0,0,0,0,0,0,0.196,0.1959,0.1962,0.1941,0.1936,0.193,0.1914,0.1909,0.1903,0.1901,0.187,0.1865,0.1842,0.1832,0.1826,0.1834,0.181,0.1801,0.1803,0.1805,0.1834,0.1839,0.1843,0,0,0,0,0,0.196,0.1966,0.1963,0.1962,0.1942,0.193,0.1925,0.1907,0.1903,0.1901,0.1886,0.1866,0.184,0.1831,0.1824,0.1831,0.18,0.1803,0.1805,0.1832,0.1838,0.1843,0,0,0,0,0,0,0.1966,0.1963,0.1959,0.1962,0.1951,0.1926,0.1923,0.1914,0.1898,0.1899,0.1871,0.1865,0.1863,0.1847,0.1837,0.1837,0.182,0.1821,0.1843,0.1848,0.1852,0.1863,0.1808,0,0,0,0,0,0.1972,0.1978,0.1967,0.1968,0.1966,0.1946,0.194,0.193,0.1915,0.1908,0.1888,0.1874,0.1866,0.1857,0.1845,0.1838,0.1842,0.1843,0.1847,0.1851,0.1858,0.1879,0.1885,0.1813,0.1813,0.1813,0,0,0.1973,0.1974,0.1975,0.197,0.196,0.1953,0.1942,0.1936,0.1932,0.1905,0.1894,0.1886,0.1869,0.1865,0.1863,0.1852,0.1875,0.1854,0.1857,0.1862,0.1882,0.1889,0.1895,0.1815,0.1814,0.1814,0,0,0.1977,0.1981,0.1985,0.198,0.1975,0.1963,0.1967,0.1949,0.1944,0.1935,0.1923,0.1925,0.1898,0.1895,0.1889,0.1912,0.1899,0.1907,0.1931,0.1951,0.1958,0.1963,0.1981,0.1988,0.1906,0.1907,0.1907,0,0.1979,0.1981,0.1982,0.1983,0.1981,0.1971,0.197,0.1962,0.1944,0.1946,0.1938,0.1929,0.1915,0.1921,0.1932,0.1921,0.193,0.1909,0.1957,0.1962,0.1967,0.1984,0.1991,0.1908,0.1908,0.1908,0.1908,0,0.1982,0.1983,0.1985,0.1985,0.1984,0.1982,0.1978,0.1977,0.1973,0.1966,0.1976,0.1965,0.1961,0.1961,0.195,0.1979,0.1974,0.1961,0.1942,0.1976,0.1992,0.1999,0.1911,0.191,0.191,0.1909,0,0,0.1982,0.1987,0.1986,0.1981,0.1987,0.198,0.199,0.199,0.1999,0.1992,0.2006,0.2004,0.2007,0.2003,0.1997,0.2015,0.2059,0.2005,0.2006,0.2021,0.2106,0.2092,0.2098,0.2053,0.2054,0.2055,0.2104,0,0.1979,0.198,0.1988,0.198,0.1977,0.1983,0.1993,0.1998,0.2005,0.2016,0.2024,0.2033,0.202,0.2027,0.2044,0.2058,0.2077,0.2047,0.2073,0.2074,0.2055,0.2106,0.2009,0.2044,0.2111,0.2112,0.2113,0,0.1973,0.1976,0.1975,0.1977,0.1978,0.1976,0.1994,0.2,0.2026,0.204,0.2059,0.2064,0.2095,0.2079,0.2122,0.2103,0.2111,0.2119,0.212,0.2101,0.2073,0.202,0.2053,0.1984,0.2123,0.2122,0.2121,0,0.196,0.1961,0.1959,0.1959,0.1967,0.1971,0.1976,0.2004,0.2018,0.2057,0.2079,0.2109,0.2131,0.215,0.2169,0.215,0.2218,0.2189,0.2183,0.2182,0.2102,0.2092,0.2068,0.2222,0.2222,0.2222,0.2222,0,0.1948,0.1941,0.1948,0.1943,0.1943,0.1958,0.1971,0.1988,0.2027,0.2051,0.2086,0.2116,0.2152,0.2188,0.2194,0.222,0.2239,0.2204,0.22,0.2111,0.2101,0.2039,0.1995,0.2224,0.2223,0.2223,0.2223,0,0.1925,0.1932,0.1924,0.1932,0.1933,0.193,0.1954,0.1966,0.2015,0.2052,0.2068,0.2135,0.2193,0.2226,0.2271,0.2254,0.22,0.2275,0.2171,0.2154,0.207,0.2032,0.1946,0.1874,0.2274,0.2274,0.2274,0,0.191,0.1907,0.1907,0.1903,0.1902,0.1906,0.1913,0.1952,0.1973,0.2057,0.2073,0.2152,0.2195,0.2266,0.2267,0.2288,0.2202,0.2201,0.2145,0.207,0.2024,0.1937,0.1876,0.2052,0.205,0.2048,0.2047,0,0.1885,0.1888,0.1884,0.1876,0.1871,0.187,0.1883,0.1897,0.1954,0.1992,0.2051,0.2095,0.2182,0.2169,0.2213,0.2208,0.207,0.2172,0.2114,0.1873,0.1755,0.1682,0.2019,0.2034,0.2036,0.2037,0.2037,0.2038,0.1866,0.1855,0.1853,0.1835,0.1832,0.182,0.1797,0.1829,0.1849,0.1881,0.1975,0.201,0.2049,0.21,0.2081,0.2,0.1992,0.1922,0.1891,0.1819,0.1713,0.2032,0.203,0.2031,0.2032,0.2033,0.2034,0,0.1827,0.1819,0.181,0.1778,0.1749,0.1765,0.1762,0.1729,0.1719,0.1789,0.1824,0.1852,0.1847,0.1868,0.1815,0.1717,0.1628,0.1665,0.1506,0.1468,0.1771,0.1725,0.1632,0.1632,0.1632,0.1632,0.1632,0.1632,0.1807,0.1778,0.1764,0.1694,0.1673,0.16,0.1579,0.1552,0.1573,0.1556,0.1567,0.1605,0.1644,0.1607,0.1504,0.1475,0.1328,0.1273,0.1269,0.1473,0.1494,0.1514,0.1461,0.1314,0.1314,0.0894,0.0891,0.0888]},{"header":{"parameterUnit":"m.s-1","parameterCategory":2,"la1":30.2991,"la2":30.254,"lo1":-89.0895,"lo2":-89.0444,"dy":0.0017,"dx":0.0017,"nx":28,"ny":28,"refTime":"2023-10-01T03:00:00:Z","depth":"0","parameterNumber":3,"parameterNumberName":"V-component_of_CURRENTS"},"data":[0,0,0,0,0,0,0,0,0,0,0,0,0,0,0,0,0,0,0,0,0,0,0,0,0,0,0,0,0,0,0,0,0,0,0,0,0,0,0,0,0,0,0,0,0,0,0,0,0,0,0,0,0,0,0,0,0,0,-0.0106,-0.0106,0,-0.0134,-0.0134,-0.0135,-0.0147,-0.0147,-0.0147,-0.0147,-0.0184,-0.0185,-0.0186,0,0,0,0,0,0,0,0,0,0,0,0,0,-0.0069,-0.0069,-0.0106,-0.0107,-0.0107,-0.0134,-0.0134,-0.0135,-0.0147,-0.0147,-0.0147,-0.0147,-0.0183,-0.0185,-0.0186,0,0,0,0,0,0,0,0,0,0,0,0,0,-0.009,-0.007,-0.0106,-0.0116,-0.0117,-0.0134,-0.0135,-0.0135,-0.0147,-0.0147,-0.0147,-0.0147,-0.0183,-0.0185,-0.0186,-0.0197,0,0,-0.0191,-0.0192,0,0,0,0,0,0,0,0,-0.0089,-0.0091,-0.0114,-0.0115,-0.0117,-0.0137,-0.0135,-0.0156,-0.0147,-0.0136,-0.0147,-0.0146,-0.0169,-0.0172,-0.0177,-0.0199,-0.0201,-0.0191,-0.0192,-0.0193,-0.0193,0,0,0,0,0,0,0,-0.0087,-0.009,-0.0117,-0.0115,-0.0116,-0.0121,-0.0124,-0.0139,-0.0153,-0.0137,-0.0137,-0.0141,-0.017,-0.0176,-0.0178,-0.0201,-0.0191,-0.0192,-0.0193,-0.0194,-0.0223,-0.0223,0,0,0,0,0,0,-0.0083,-0.0089,-0.0116,-0.0118,-0.0102,-0.0122,-0.0125,-0.013,-0.0152,-0.0155,-0.0141,-0.0141,-0.0173,-0.0176,-0.0179,-0.0178,-0.0193,-0.0194,-0.0195,-0.0223,-0.0223,-0.0223,0,0,0,0,0,0,-0.0083,-0.0086,-0.0115,-0.0104,-0.0108,-0.0122,-0.0129,-0.0131,-0.0134,-0.0155,-0.0159,-0.0141,-0.0173,-0.0177,-0.0187,-0.018,-0.0195,-0.0196,-0.0223,-0.0223,-0.0223,-0.0186,0,0,0,0,0,0,-0.0081,-0.0085,-0.0087,-0.0104,-0.0108,-0.0119,-0.0129,-0.0132,-0.0136,-0.0137,-0.0157,-0.016,-0.0173,-0.0184,-0.0188,-0.0183,-0.0197,-0.0223,-0.0223,-0.0223,-0.0187,-0.0184,-0.0182,0,0,0,0,0,-0.008,-0.0081,-0.0087,-0.009,-0.0111,-0.0119,-0.0122,-0.0132,-0.0136,-0.0135,-0.0148,-0.0159,-0.0185,-0.0185,-0.019,-0.0185,-0.0224,-0.0223,-0.0223,-0.0188,-0.0185,-0.0182,0,0,0,0,0,0,-0.0063,-0.0083,-0.0089,-0.0096,-0.0104,-0.0121,-0.0122,-0.0129,-0.0139,-0.0138,-0.0158,-0.0163,-0.0169,-0.0183,-0.0183,-0.0193,-0.0206,-0.0207,-0.0178,-0.0175,-0.0172,-0.0159,-0.0199,0,0,0,0,0,-0.0061,-0.0068,-0.0084,-0.0088,-0.0092,-0.0106,-0.0111,-0.0117,-0.0128,-0.0132,-0.0147,-0.0161,-0.0172,-0.0178,-0.0191,-0.0197,-0.021,-0.0197,-0.0194,-0.0192,-0.0184,-0.0198,-0.0196,-0.0221,-0.0221,-0.0221,0,0,-0.0055,-0.0067,-0.007,-0.0085,-0.0093,-0.0091,-0.0109,-0.0112,-0.0107,-0.0135,-0.0136,-0.0153,-0.0172,-0.0176,-0.018,-0.0187,-0.0192,-0.0191,-0.0189,-0.0182,-0.0197,-0.0195,-0.0193,-0.0221,-0.0221,-0.0221,0,0,-0.0042,-0.0056,-0.0056,-0.0061,-0.0071,-0.0078,-0.0078,-0.0092,-0.0096,-0.0102,-0.0118,-0.0129,-0.015,-0.0158,-0.0165,-0.0156,-0.0178,-0.0164,-0.0138,-0.0152,-0.0149,-0.0148,-0.0163,-0.0163,-0.0161,-0.0161,-0.0161,0,-0.0032,-0.0035,-0.0055,-0.0053,-0.0052,-0.007,-0.0061,-0.0067,-0.0082,-0.0081,-0.0096,-0.012,-0.0139,-0.0138,-0.0135,-0.0149,-0.0162,-0.0147,-0.0147,-0.0146,-0.0145,-0.0161,-0.0162,-0.0159,-0.016,-0.016,-0.016,0,-0.0017,-0.0017,-0.0016,-0.0019,-0.0021,-0.0016,-0.0026,-0.0025,-0.0035,-0.0044,-0.0051,-0.0079,-0.0091,-0.0102,-0.0117,-0.0115,-0.0129,-0.0142,-0.0153,-0.014,-0.0158,-0.0159,-0.0157,-0.0157,-0.0158,-0.0158,0,0,0.0007,-0.0003,-0.0001,0.0007,-0.0001,0.0004,0.0012,0.0016,0.003,0.0004,0.0014,-0.0015,-0.0034,-0.0043,-0.0067,-0.0081,-0.0089,-0.0105,-0.0107,-0.0116,-0.0122,-0.0123,-0.0124,-0.0104,-0.0103,-0.0103,-0.0139,0,0.0029,0.0041,0.003,0.0053,0.0061,0.0053,0.0063,0.0065,0.006,0.0065,0.0033,0.0027,-0.001,-0.0016,-0.0035,-0.007,-0.009,-0.0079,-0.0137,-0.0139,-0.0138,-0.0125,-0.0098,-0.0127,-0.014,-0.014,-0.014,0,0.0053,0.0058,0.0079,0.0092,0.0096,0.0106,0.013,0.014,0.0139,0.0133,0.012,0.0092,0.0071,0.0032,-0.0022,-0.0013,-0.0063,-0.0099,-0.0101,-0.0114,-0.0141,-0.0143,-0.0128,-0.0207,-0.0142,-0.0142,-0.0142,0,0.0085,0.0097,0.0117,0.0121,0.0129,0.0143,0.0153,0.0161,0.0182,0.0178,0.0191,0.015,0.0139,0.0075,0.0001,-0.0012,-0.0061,-0.009,-0.0141,-0.0142,-0.0136,-0.0136,-0.0199,-0.0135,-0.0135,-0.0135,-0.0135,0,0.0114,0.0133,0.0134,0.0146,0.0181,0.0174,0.0214,0.0221,0.0238,0.0276,0.0229,0.0247,0.0149,0.0109,0.0027,-0.005,-0.0043,-0.013,-0.0147,-0.0123,-0.0122,-0.0204,-0.0264,-0.0136,-0.0136,-0.0136,-0.0135,0,0.0145,0.0145,0.0171,0.0185,0.0196,0.0221,0.0258,0.029,0.0298,0.0348,0.035,0.0324,0.0274,0.0175,0.0076,-0.0006,-0.0138,-0.0123,-0.0088,-0.01,-0.0225,-0.0284,-0.0352,-0.0427,-0.0186,-0.0186,-0.0186,0,0.016,0.0175,0.0204,0.0227,0.0234,0.0269,0.0301,0.032,0.0361,0.0404,0.0436,0.0401,0.0396,0.0252,0.0106,-0.0033,-0.0137,-0.0121,-0.0145,-0.0221,-0.0301,-0.0323,-0.0384,-0.0127,-0.0127,-0.0127,-0.0126,0,0.0192,0.0201,0.0222,0.0265,0.0302,0.0346,0.0392,0.0437,0.0475,0.0518,0.0571,0.057,0.0449,0.0333,0.0139,0.003,-0.0178,-0.012,-0.0207,-0.0262,-0.0283,-0.0366,-0.0121,-0.0124,-0.0124,-0.0124,-0.0124,-0.0124,0.022,0.0238,0.0266,0.0306,0.0354,0.0416,0.0452,0.0518,0.0591,0.0658,0.0666,0.0682,0.0523,0.0274,0.0122,-0.014,-0.0169,-0.0223,-0.029,-0.0306,-0.0372,-0.0121,-0.0138,-0.0139,-0.0139,-0.0139,-0.014,0,0.0249,0.0265,0.0305,0.0352,0.0402,0.0423,0.0508,0.0546,0.0634,0.0713,0.0753,0.0693,0.0499,0.0263,-0.0064,-0.0257,-0.035,-0.038,-0.0411,-0.0472,-0.0245,-0.0237,-0.0266,-0.0266,-0.0266,-0.0266,-0.0266,-0.0266,0.0265,0.0297,0.0307,0.0377,0.0415,0.047,0.0515,0.0589,0.0653,0.0715,0.073,0.072,0.0548,0.0082,-0.0304,-0.0424,-0.0591,-0.0592,-0.0719,-0.0559,-0.055,-0.054,-0.0545,-0.0639,-0.0639,-0.0901,-0.0904,-0.0906]}],[{"header":{"parameterUnit":"m.s-1","parameterCategory":2,"la1":30.2991,"la2":30.254,"lo1":-89.0895,"lo2":-89.0444,"dy":0.0017,"dx":0.0017,"nx":28,"ny":28,"refTime":"2023-10-01T03:00:00:Z","depth":"2","parameterNumber":2,"parameterNumberName":"U-component_of_CURRENTS"},"data":[0,0,0,0,0,0,0,0,0,0,0,0,0,0,0,0,0,0,0,0,0,0,0,0,0,0,0,0,0,0,0,0,0,0,0,0,0,0,0,0,0,0,0,0,0,0,0,0,0,0,0,0,0,0,0,0,0,0,0.1988,0.1988,0,0.1946,0.1945,0.1944,0.1917,0.1917,0.1917,0.1917,0.1872,0.1871,0.187,0,0,0,0,0,0,0,0,0,0,0,0,0,0.1994,0.1994,0.1988,0.1988,0.1988,0.1946,0.1945,0.1944,0.1917,0.1917,0.1917,0.1917,0.1873,0.1871,0.187,0,0,0,0,0,0,0,0,0,0,0,0,0,0.1973,0.1994,0.1989,0.1971,0.1969,0.1946,0.1945,0.1944,0.1917,0.1917,0.1917,0.1917,0.1873,0.1871,0.1869,0.1856,0,0,0.1864,0.1863,0,0,0,0,0,0,0,0,0.1974,0.1972,0.1974,0.1972,0.197,0.1939,0.193,0.1915,0.1917,0.1934,0.1917,0.1917,0.1896,0.1892,0.188,0.1854,0.1852,0.1863,0.1862,0.1861,0.1861,0,0,0,0,0,0,0,0.1976,0.1974,0.1969,0.1974,0.1971,0.1947,0.1945,0.1927,0.1913,0.1933,0.1931,0.1931,0.1895,0.1882,0.1879,0.1851,0.1863,0.1862,0.1861,0.186,0.1854,0.1855,0,0,0,0,0,0,0.1989,0.1976,0.197,0.1968,0.1975,0.1948,0.1945,0.1947,0.1913,0.1909,0.193,0.1929,0.1885,0.1881,0.1877,0.1886,0.1861,0.186,0.1859,0.1853,0.1854,0.1855,0,0,0,0,0,0,0.1989,0.1989,0.1972,0.1972,0.1969,0.1948,0.195,0.1946,0.1941,0.1912,0.1907,0.1931,0.1885,0.188,0.1874,0.1883,0.1859,0.1857,0.1852,0.1854,0.1855,0.1886,0,0,0,0,0,0,0.1989,0.1989,0.1994,0.1974,0.197,0.1965,0.1951,0.1945,0.1941,0.1939,0.1911,0.1906,0.1885,0.1877,0.1872,0.188,0.1856,0.1851,0.1853,0.1854,0.1883,0.1888,0.1892,0,0,0,0,0,0.199,0.1997,0.1995,0.1994,0.1978,0.1965,0.1961,0.1944,0.1941,0.1939,0.1926,0.1907,0.1885,0.1876,0.187,0.1878,0.185,0.1852,0.1854,0.1881,0.1887,0.1892,0,0,0,0,0,0,0.1996,0.1994,0.1991,0.1996,0.1986,0.1962,0.1959,0.1951,0.1937,0.1938,0.1913,0.1907,0.1907,0.1892,0.1882,0.1885,0.1867,0.1868,0.189,0.1895,0.1899,0.1909,0.1854,0,0,0,0,0,0.2002,0.201,0.2,0.2003,0.2001,0.1982,0.1976,0.1967,0.1953,0.1947,0.1929,0.1916,0.191,0.1903,0.1892,0.1887,0.189,0.1892,0.1897,0.19,0.1906,0.1927,0.1934,0.1863,0.1863,0.1863,0,0,0.2004,0.2006,0.2008,0.2005,0.1995,0.1989,0.1978,0.1973,0.197,0.1945,0.1936,0.1929,0.1914,0.1912,0.1911,0.1899,0.1923,0.1903,0.1906,0.191,0.193,0.1937,0.1943,0.1864,0.1864,0.1864,0,0,0.2009,0.2015,0.202,0.2016,0.2011,0.2,0.2003,0.1986,0.1982,0.1975,0.1964,0.1968,0.1944,0.1941,0.1936,0.1959,0.1947,0.1956,0.1979,0.1999,0.2005,0.201,0.2027,0.2034,0.1955,0.1955,0.1955,0,0.2011,0.2015,0.2018,0.2019,0.2017,0.2008,0.2007,0.2,0.1983,0.1986,0.1979,0.1972,0.196,0.1968,0.1978,0.1968,0.1977,0.1957,0.2004,0.201,0.2014,0.203,0.2037,0.1957,0.1957,0.1957,0.1957,0,0.2015,0.2018,0.2021,0.2022,0.2022,0.2019,0.2015,0.2015,0.2012,0.2007,0.2018,0.2008,0.2006,0.2007,0.1997,0.2026,0.2021,0.2009,0.199,0.2023,0.2038,0.2045,0.196,0.1959,0.1958,0.1958,0,0,0.2016,0.2023,0.2022,0.2019,0.2024,0.2018,0.2028,0.2029,0.2038,0.2033,0.2048,0.2048,0.2051,0.2048,0.2042,0.2061,0.2103,0.2052,0.2052,0.2066,0.2149,0.2131,0.2136,0.2099,0.21,0.2101,0.2147,0,0.2014,0.2016,0.2025,0.2019,0.2016,0.2022,0.2032,0.2038,0.2045,0.2057,0.2066,0.2076,0.2064,0.2071,0.2089,0.2102,0.2122,0.2092,0.2117,0.2118,0.2095,0.2143,0.193,0.1951,0.2153,0.2154,0.2155,0,0.2009,0.2013,0.2012,0.2016,0.2017,0.2016,0.2033,0.204,0.2066,0.2081,0.21,0.2106,0.2137,0.2121,0.2164,0.2146,0.2153,0.2161,0.2163,0.214,0.2112,0.195,0.1955,0.2165,0.2165,0.2164,0.2163,0,0.1996,0.1998,0.1998,0.1998,0.2007,0.2011,0.2017,0.2044,0.2058,0.2097,0.2119,0.215,0.2171,0.219,0.2209,0.2191,0.2257,0.2229,0.2219,0.2217,0.2037,0.2018,0.2261,0.2261,0.2261,0.2261,0.2261,0,0.1985,0.1979,0.1987,0.1983,0.1984,0.1999,0.2012,0.2029,0.2068,0.2091,0.2126,0.2155,0.2192,0.2227,0.2233,0.2255,0.2276,0.2238,0.2234,0.2043,0.2025,0.2208,0.2201,0.2263,0.2262,0.2262,0.2262,0,0.1962,0.197,0.1963,0.1972,0.1974,0.1971,0.1996,0.2008,0.2056,0.2091,0.2108,0.2173,0.2228,0.226,0.2305,0.2286,0.2307,0.2304,0.2083,0.2053,0.2245,0.2239,0.2298,0.2298,0.2298,0.2298,0.2297,0,0.1949,0.1946,0.1947,0.1944,0.1943,0.1948,0.1954,0.1993,0.2014,0.2096,0.211,0.2187,0.2223,0.229,0.2269,0.2281,0.2327,0.21,0.203,0.2262,0.2252,0.2247,0.2241,0.1798,0.1794,0.1791,0.1788,0,0.1924,0.1928,0.1925,0.1916,0.1912,0.1912,0.1925,0.1938,0.1994,0.2027,0.2081,0.2119,0.2182,0.2098,0.2129,0.2107,0.2082,0.2035,0.2327,0.1837,0.1799,0.1787,0.1796,0.1758,0.1761,0.1763,0.1765,0.1766,0.1905,0.1896,0.1893,0.1875,0.1874,0.1861,0.1839,0.1859,0.1872,0.1876,0.1975,0.1949,0.196,0.1898,0.1844,0.1803,0.196,0.1851,0.1857,0.1868,0.1817,0.1782,0.1728,0.1731,0.1733,0.1735,0.1737,0,0.1861,0.1859,0.185,0.182,0.1784,0.1807,0.1803,0.1755,0.1723,0.1745,0.1749,0.1598,0.1531,0.1558,0.1439,0.1454,0.14,0.1399,0.1289,0.1322,0.135,0.1268,0.1036,0.1034,0.1032,0.103,0,0,0.184,0.1808,0.1794,0.1723,0.1707,0.1632,0.1611,0.1554,0.1536,0.1459,0.1407,0.1455,0.1515,0.1246,0.1213,0.1104,0.1205,0.1061,0.1625,0.1529,0.1554,0.1615,0.1528,0,0,0,0,0]},{"header":{"parameterUnit":"m.s-1","parameterCategory":2,"la1":30.2991,"la2":30.254,"lo1":-89.0895,"lo2":-89.0444,"dy":0.0017,"dx":0.0017,"nx":28,"ny":28,"refTime":"2023-10-01T03:00:00:Z","depth":"2","parameterNumber":3,"parameterNumberName":"V-component_of_CURRENTS"},"data":[0,0,0,0,0,0,0,0,0,0,0,0,0,0,0,0,0,0,0,0,0,0,0,0,0,0,0,0,0,0,0,0,0,0,0,0,0,0,0,0,0,0,0,0,0,0,0,0,0,0,0,0,0,0,0,0,0,0,-0.0039,-0.0039,0,-0.0068,-0.0068,-0.0068,-0.0084,-0.0084,-0.0084,-0.0084,-0.0124,-0.0125,-0.0126,0,0,0,0,0,0,0,0,0,0,0,0,0,-0.0003,-0.0004,-0.0039,-0.0039,-0.0039,-0.0068,-0.0068,-0.0069,-0.0084,-0.0084,-0.0084,-0.0084,-0.0124,-0.0125,-0.0126,0,0,0,0,0,0,0,0,0,0,0,0,0,-0.0024,-0.0004,-0.0038,-0.005,-0.0052,-0.0068,-0.0068,-0.0069,-0.0084,-0.0084,-0.0084,-0.0084,-0.0124,-0.0125,-0.0127,-0.0136,0,0,-0.0131,-0.0132,0,0,0,0,0,0,0,0,-0.0023,-0.0025,-0.0048,-0.005,-0.0051,-0.0072,-0.007,-0.0092,-0.0084,-0.0072,-0.0084,-0.0084,-0.0108,-0.0111,-0.0116,-0.0137,-0.0139,-0.0132,-0.0133,-0.0133,-0.0134,0,0,0,0,0,0,0,-0.0021,-0.0024,-0.005,-0.0049,-0.005,-0.0057,-0.006,-0.0074,-0.009,-0.0073,-0.0074,-0.0077,-0.0109,-0.0114,-0.0117,-0.014,-0.0132,-0.0133,-0.0134,-0.0134,-0.0163,-0.0163,0,0,0,0,0,0,-0.0017,-0.0023,-0.0049,-0.0051,-0.0037,-0.0057,-0.0061,-0.0065,-0.0089,-0.0093,-0.0077,-0.0078,-0.0112,-0.0115,-0.0119,-0.0119,-0.0133,-0.0135,-0.0136,-0.0163,-0.0163,-0.0162,0,0,0,0,0,0,-0.0016,-0.0019,-0.0048,-0.0037,-0.0041,-0.0058,-0.0063,-0.0066,-0.0071,-0.0092,-0.0096,-0.0079,-0.0112,-0.0116,-0.0127,-0.0121,-0.0135,-0.0137,-0.0163,-0.0163,-0.0163,-0.0127,0,0,0,0,0,0,-0.0015,-0.0019,-0.0021,-0.0037,-0.0042,-0.0053,-0.0063,-0.0067,-0.0073,-0.0074,-0.0095,-0.0099,-0.0112,-0.0125,-0.0129,-0.0123,-0.0138,-0.0163,-0.0163,-0.0163,-0.0128,-0.0125,-0.0123,0,0,0,0,0,-0.0014,-0.0015,-0.0021,-0.0024,-0.0044,-0.0052,-0.0055,-0.0067,-0.0073,-0.0072,-0.0086,-0.0098,-0.0125,-0.0126,-0.0131,-0.0125,-0.0164,-0.0163,-0.0163,-0.0129,-0.0126,-0.0123,0,0,0,0,0,0,0.0001,-0.0017,-0.0024,-0.0031,-0.0039,-0.0055,-0.0057,-0.0065,-0.0076,-0.0077,-0.0097,-0.0102,-0.0109,-0.0123,-0.0123,-0.0133,-0.0146,-0.0147,-0.0119,-0.0116,-0.0113,-0.01,-0.0139,0,0,0,0,0,0.0003,-0.0003,-0.0019,-0.0023,-0.0027,-0.0042,-0.0047,-0.0054,-0.0065,-0.007,-0.0086,-0.0101,-0.0111,-0.0118,-0.0131,-0.0137,-0.015,-0.0137,-0.0134,-0.0132,-0.0124,-0.0138,-0.0136,-0.0161,-0.0161,-0.0161,0,0,0.0009,-0.0002,-0.0006,-0.002,-0.0028,-0.0027,-0.0045,-0.0049,-0.0045,-0.0073,-0.0075,-0.0093,-0.0111,-0.0116,-0.0121,-0.0127,-0.0133,-0.0131,-0.0129,-0.0123,-0.0138,-0.0135,-0.0133,-0.0161,-0.0161,-0.0161,0,0,0.002,0.0007,0.0007,0.0002,-0.0009,-0.0016,-0.0015,-0.003,-0.0035,-0.0042,-0.0058,-0.007,-0.0091,-0.0098,-0.0105,-0.0097,-0.0119,-0.0104,-0.0079,-0.0092,-0.009,-0.0088,-0.0105,-0.0105,-0.0102,-0.0101,-0.0101,0,0.0029,0.0027,0.0007,0.001,0.0011,-0.0008,0.0001,-0.0006,-0.0021,-0.0021,-0.0037,-0.0061,-0.008,-0.0078,-0.0076,-0.0089,-0.0103,-0.0088,-0.0088,-0.0086,-0.0085,-0.0102,-0.0103,-0.01,-0.01,-0.01,-0.01,0,0.0044,0.0043,0.0044,0.0042,0.004,0.0045,0.0035,0.0035,0.0024,0.0015,0.0007,-0.0021,-0.0033,-0.0043,-0.0058,-0.0056,-0.0071,-0.0083,-0.0094,-0.008,-0.01,-0.0101,-0.0097,-0.0098,-0.0098,-0.0099,0,0,0.0064,0.0056,0.0059,0.0066,0.0059,0.0063,0.0072,0.0076,0.0089,0.0062,0.0072,0.0043,0.0024,0.0014,-0.0009,-0.0022,-0.0032,-0.0047,-0.0049,-0.0059,-0.0064,-0.0067,-0.0068,-0.0046,-0.0045,-0.0045,-0.0082,0,0.0085,0.0098,0.0089,0.0111,0.0118,0.0111,0.0122,0.0123,0.0118,0.0122,0.0091,0.0085,0.0047,0.0041,0.0021,-0.0013,-0.0033,-0.0021,-0.0079,-0.0081,-0.0081,-0.0069,-0.0034,-0.0062,-0.0083,-0.0083,-0.0083,0,0.0108,0.0114,0.0134,0.0148,0.0152,0.0162,0.0186,0.0195,0.0195,0.0189,0.0175,0.0147,0.0127,0.0088,0.0034,0.0043,-0.0008,-0.0042,-0.0045,-0.0058,-0.0085,-0.0079,-0.0064,-0.0086,-0.0085,-0.0085,-0.0085,0,0.0137,0.015,0.0169,0.0174,0.0184,0.0197,0.0207,0.0215,0.0237,0.0232,0.0244,0.0204,0.0192,0.0129,0.0055,0.0043,-0.0007,-0.0034,-0.0086,-0.0087,-0.0073,-0.0073,-0.0079,-0.0079,-0.0079,-0.0078,-0.0078,0,0.0165,0.0182,0.0185,0.0197,0.0231,0.0226,0.0264,0.0271,0.029,0.0326,0.028,0.0298,0.0202,0.0161,0.0079,0.0003,0.001,-0.0075,-0.0093,-0.006,-0.0059,-0.0092,-0.0093,-0.008,-0.008,-0.0079,-0.0079,0,0.0191,0.0193,0.0218,0.0234,0.0244,0.0269,0.0306,0.0338,0.0347,0.0395,0.0396,0.0371,0.0321,0.0223,0.0125,0.0045,-0.0036,-0.0071,-0.0028,-0.0039,-0.0118,-0.0117,-0.0134,-0.0134,-0.0134,-0.0134,-0.0134,0,0.0205,0.022,0.0248,0.0271,0.0278,0.0313,0.0345,0.0366,0.0407,0.0449,0.048,0.0445,0.0438,0.0295,0.0155,0.0018,-0.0023,-0.0062,-0.0083,-0.0107,-0.0122,-0.012,-0.0119,-0.0055,-0.0055,-0.0054,-0.0054,0,0.0234,0.0242,0.0264,0.0307,0.0342,0.0387,0.0433,0.0478,0.0517,0.0559,0.0609,0.0607,0.0489,0.0371,0.018,0.0084,-0.0037,-0.006,-0.0087,-0.0045,-0.0035,-0.005,-0.005,-0.005,-0.0051,-0.0051,-0.0051,-0.0051,0.0259,0.0277,0.0304,0.0344,0.0392,0.0454,0.049,0.0558,0.063,0.069,0.0694,0.0684,0.0565,0.0328,0.0182,0.0006,0.0,-0.0078,-0.0078,-0.0079,-0.0061,-0.0052,-0.0068,-0.0068,-0.0069,-0.0069,-0.0069,0,0.029,0.0302,0.034,0.0388,0.0442,0.0459,0.0544,0.0589,0.0677,0.0727,0.0757,0.0645,0.0531,0.0371,0.0132,-0.0008,-0.002,-0.007,-0.0048,-0.005,-0.0052,-0.0033,-0.0032,-0.0033,-0.0033,-0.0034,0,0,0.0307,0.034,0.035,0.0421,0.0455,0.0522,0.0567,0.0645,0.0694,0.0739,0.0727,0.0722,0.0563,0.0394,0.0227,0.0089,0.0039,0.0056,0.0045,0.0089,0.0088,-0.0034,-0.0003,0,0,0,0,0]}],[{"header":{"parameterUnit":"m.s-1","parameterCategory":2,"la1":30.2991,"la2":30.254,"lo1":-89.0895,"lo2":-89.0444,"dy":0.0017,"dx":0.0017,"nx":28,"ny":28,"refTime":"2023-10-01T03:00:00:Z","depth":"4","parameterNumber":2,"parameterNumberName":"U-component_of_CURRENTS"},"data":[0,0,0,0,0,0,0,0,0,0,0,0,0,0,0,0,0,0,0,0,0,0,0,0,0,0,0,0,0,0,0,0,0,0,0,0,0,0,0,0,0,0,0,0,0,0,0,0,0,0,0,0,0,0,0,0,0,0,0.1135,0.1136,0,0.1185,0.1185,0.1186,0.1231,0.1231,0.1232,0.1232,0.1293,0.1294,0.1295,0,0,0,0,0,0,0,0,0,0,0,0,0,0.1115,0.1115,0.1135,0.1136,0.1137,0.1185,0.1185,0.1186,0.123,0.1231,0.1232,0.1233,0.1293,0.1294,0.1295,0,0,0,0,0,0,0,0,0,0,0,0,0,0.1139,0.1115,0.1135,0.1165,0.1169,0.1185,0.1185,0.1186,0.123,0.1231,0.1232,0.1233,0.1292,0.1294,0.1296,0.1286,0,0,0.13,0.1301,0,0,0,0,0,0,0,0,0.1137,0.1139,0.116,0.1163,0.1167,0.1204,0.1201,0.122,0.123,0.1206,0.1232,0.1234,0.1264,0.1268,0.1274,0.1289,0.1291,0.13,0.1301,0.1302,0.1302,0,0,0,0,0,0,0,0.1136,0.1138,0.1154,0.1161,0.1165,0.1189,0.1193,0.1205,0.1228,0.1208,0.1212,0.1219,0.1266,0.1272,0.1275,0.1292,0.13,0.1302,0.1303,0.1303,0.1395,0.1396,0,0,0,0,0,0,0.1129,0.1136,0.1152,0.1155,0.1156,0.1189,0.1193,0.119,0.1228,0.1235,0.1218,0.122,0.1269,0.1274,0.1278,0.1347,0.1302,0.1303,0.1304,0.1393,0.1395,0.1397,0,0,0,0,0,0,0.1128,0.1129,0.115,0.1148,0.1153,0.1188,0.1184,0.119,0.1226,0.1236,0.1243,0.125,0.127,0.1276,0.1318,0.1347,0.1304,0.1305,0.1391,0.1394,0.1396,0.1435,0,0,0,0,0,0,0.1127,0.1128,0.1138,0.1147,0.1153,0.1179,0.1184,0.1191,0.1227,0.1232,0.1265,0.127,0.1271,0.1315,0.1319,0.1348,0.1307,0.1389,0.1392,0.1395,0.1432,0.1439,0.1444,0,0,0,0,0,0.1126,0.1129,0.1138,0.1141,0.116,0.118,0.1186,0.1213,0.1228,0.1248,0.1274,0.1271,0.1336,0.1318,0.1322,0.1352,0.1388,0.1392,0.1395,0.1429,0.1437,0.1444,0,0,0,0,0,0,0.1131,0.1135,0.1144,0.1151,0.1175,0.1189,0.1212,0.1228,0.1264,0.1278,0.1286,0.1293,0.1341,0.1342,0.1322,0.1388,0.1363,0.1367,0.1388,0.1395,0.1401,0.1402,0.1308,0,0,0,0,0,0.1134,0.1137,0.1151,0.1162,0.1175,0.1199,0.1217,0.1236,0.1261,0.1279,0.1302,0.1329,0.1353,0.1372,0.1391,0.1424,0.1425,0.1448,0.1454,0.1459,0.1464,0.149,0.1499,0.1408,0.1408,0.1408,0,0,0.1141,0.1144,0.1148,0.1164,0.1185,0.1207,0.1213,0.1248,0.1276,0.1279,0.1333,0.1352,0.1367,0.1407,0.1429,0.1416,0.1487,0.1463,0.1468,0.147,0.1495,0.1504,0.1511,0.141,0.141,0.1409,0,0,0.1149,0.116,0.1167,0.1187,0.122,0.1234,0.125,0.1282,0.131,0.1355,0.1368,0.1407,0.1444,0.1461,0.1472,0.1523,0.1518,0.1535,0.1567,0.1593,0.16,0.1607,0.162,0.1627,0.1538,0.1539,0.1539,0,0.1164,0.1168,0.1177,0.1195,0.1218,0.1248,0.1274,0.1301,0.1348,0.1373,0.1382,0.1451,0.1467,0.151,0.1534,0.1537,0.1547,0.1536,0.16,0.1606,0.1612,0.1624,0.1632,0.1541,0.1541,0.154,0.154,0,0.1171,0.1191,0.1202,0.1229,0.1256,0.1286,0.132,0.1359,0.1396,0.1422,0.1485,0.1509,0.1549,0.1564,0.1566,0.1621,0.1614,0.1603,0.1578,0.1624,0.1633,0.1641,0.1544,0.1543,0.1543,0.1542,0,0,0.116,0.1199,0.1208,0.123,0.128,0.1299,0.1352,0.14,0.1439,0.1489,0.1538,0.1588,0.1609,0.1623,0.1636,0.1662,0.1716,0.1658,0.1659,0.1664,0.1772,0.1656,0.1652,0.1719,0.1721,0.1722,0.1761,0,0.1171,0.1202,0.1224,0.1273,0.1294,0.1341,0.1384,0.1436,0.1483,0.1537,0.1575,0.1628,0.1628,0.1659,0.1687,0.1713,0.1738,0.1706,0.1732,0.1732,0.1618,0.1657,0.1727,0.1766,0.1767,0.1769,0.1769,0,0.1168,0.1191,0.1235,0.1293,0.1309,0.1348,0.1423,0.1466,0.1541,0.1582,0.1638,0.1668,0.1729,0.1717,0.178,0.1763,0.1775,0.1786,0.1787,0.1669,0.163,0.1711,0.1782,0.1781,0.178,0.1779,0.1779,0,0.1141,0.1199,0.1234,0.1255,0.1324,0.1365,0.141,0.1486,0.1528,0.1618,0.1658,0.1723,0.1767,0.1797,0.1827,0.1815,0.1881,0.186,0.1763,0.1755,0.183,0.1822,0.1899,0.1899,0.1899,0.1899,0.1899,0,0.1125,0.1158,0.1229,0.1248,0.1302,0.1358,0.1426,0.148,0.1561,0.1606,0.1681,0.1717,0.1793,0.1834,0.1847,0.1825,0.1898,0.1774,0.1759,0.1846,0.184,0.1835,0.1827,0.19,0.19,0.19,0.1899,0,0.1084,0.1131,0.1176,0.1258,0.1288,0.1329,0.1426,0.1465,0.1553,0.1614,0.1647,0.1736,0.1785,0.1836,0.189,0.1838,0.1838,0.1812,0.1907,0.1897,0.1689,0.1683,0.1699,0.1695,0.1692,0.169,0.1687,0,0.1061,0.1081,0.1172,0.1204,0.1247,0.1317,0.1359,0.1454,0.1489,0.1604,0.1617,0.1704,0.175,0.1724,0.1793,0.1804,0.1784,0.1768,0.172,0.1685,0.1671,0.1669,0.1668,0.1682,0.1682,0.1681,0.168,0,0.1021,0.1067,0.1105,0.1165,0.1218,0.1263,0.133,0.1344,0.1443,0.1533,0.1544,0.1566,0.1614,0.1646,0.1671,0.1675,0.1769,0.1735,0.1741,0.1695,0.1665,0.1653,0.1655,0.1669,0.1671,0.1672,0.1672,0,0.1,0.1015,0.1072,0.1113,0.1173,0.1187,0.1232,0.1263,0.1304,0.1416,0.1417,0.1505,0.1591,0.158,0.1603,0.16,0.1571,0.151,0.1527,0.154,0.1471,0.1409,0.1324,0,0,0,0,0,0.097,0.0975,0.1013,0.1047,0.1099,0.113,0.12,0.1243,0.1331,0.1297,0.135,0.1383,0.1405,0.1454,0.1419,0.1549,0.1591,0.1503,0.1534,0.1608,0.1621,0.1555,0,0,0,0,0,0,0.0951,0.0984,0.0988,0.0979,0.0989,0.103,0.107,0.113,0.1113,0.1207,0.1225,0.1295,0.1343,0.141,0.1391,0.1407,0.1396,0.1561,0.1557,0.1601,0.1612,0.1623,0.1559,0,0,0,0,0]},{"header":{"parameterUnit":"m.s-1","parameterCategory":2,"la1":30.2991,"la2":30.254,"lo1":-89.0895,"lo2":-89.0444,"dy":0.0017,"dx":0.0017,"nx":28,"ny":28,"refTime":"2023-10-01T03:00:00:Z","depth":"4","parameterNumber":3,"parameterNumberName":"V-component_of_CURRENTS"},"data":[0,0,0,0,0,0,0,0,0,0,0,0,0,0,0,0,0,0,0,0,0,0,0,0,0,0,0,0,0,0,0,0,0,0,0,0,0,0,0,0,0,0,0,0,0,0,0,0,0,0,0,0,0,0,0,0,0,0,0.0215,0.0214,0,0.018,0.0179,0.0179,0.0161,0.0161,0.0161,0.0161,0.0122,0.0121,0.012,0,0,0,0,0,0,0,0,0,0,0,0,0,0.0213,0.0214,0.0215,0.0214,0.0214,0.018,0.0179,0.0179,0.0161,0.0161,0.0161,0.0161,0.0123,0.0121,0.012,0,0,0,0,0,0,0,0,0,0,0,0,0,0.02,0.0214,0.0215,0.0201,0.0199,0.018,0.0179,0.0179,0.0161,0.0161,0.0161,0.0161,0.0123,0.0122,0.012,0.0111,0,0,0.0115,0.0115,0,0,0,0,0,0,0,0,0.0201,0.02,0.0203,0.0202,0.02,0.0175,0.0165,0.0156,0.0161,0.0176,0.0161,0.0161,0.0139,0.0137,0.013,0.0109,0.0107,0.0115,0.0114,0.0114,0.0113,0,0,0,0,0,0,0,0.0202,0.0201,0.0201,0.0203,0.0201,0.0178,0.0177,0.0163,0.0158,0.0175,0.0173,0.0169,0.0139,0.0132,0.0129,0.0107,0.0115,0.0114,0.0113,0.0112,0.008,0.008,0,0,0,0,0,0,0.0209,0.0202,0.0202,0.02,0.02,0.0179,0.0177,0.0183,0.0158,0.0155,0.0169,0.0169,0.0134,0.0131,0.0128,0.0124,0.0114,0.0112,0.0111,0.008,0.008,0.008,0,0,0,0,0,0,0.0209,0.021,0.0203,0.0199,0.0197,0.0179,0.0186,0.0182,0.0177,0.0154,0.0151,0.0167,0.0134,0.013,0.0119,0.0122,0.0111,0.011,0.008,0.008,0.008,0.011,0,0,0,0,0,0,0.021,0.021,0.0218,0.0201,0.0198,0.0195,0.0186,0.0182,0.0174,0.0173,0.0151,0.0148,0.0134,0.0121,0.0117,0.0119,0.0109,0.008,0.008,0.008,0.0109,0.0111,0.0113,0,0,0,0,0,0.021,0.022,0.0218,0.0218,0.0209,0.0195,0.0191,0.0178,0.0174,0.0172,0.016,0.0148,0.0119,0.012,0.0116,0.0117,0.008,0.008,0.008,0.0108,0.0111,0.0113,0,0,0,0,0,0,0.022,0.0219,0.0217,0.0226,0.0212,0.0192,0.019,0.018,0.0168,0.0169,0.0149,0.0145,0.0136,0.0122,0.0124,0.0108,0.0097,0.0097,0.012,0.0123,0.0125,0.0134,0.0108,0,0,0,0,0,0.0228,0.0238,0.0225,0.0232,0.0227,0.0209,0.0203,0.0193,0.0179,0.0174,0.0159,0.0144,0.0132,0.0125,0.0111,0.0102,0.0088,0.0099,0.0102,0.0103,0.0107,0.009,0.0091,0.008,0.008,0.008,0,0,0.0233,0.0234,0.0239,0.0235,0.0225,0.0221,0.0205,0.0198,0.0195,0.0172,0.0166,0.015,0.0131,0.0123,0.0117,0.0112,0.0098,0.0104,0.0105,0.0108,0.009,0.0091,0.0092,0.0081,0.0081,0.0081,0,0,0.0244,0.025,0.0259,0.0252,0.0241,0.0231,0.023,0.0211,0.0206,0.0195,0.0181,0.0169,0.0146,0.0135,0.0127,0.0131,0.011,0.0125,0.0142,0.0125,0.0126,0.0126,0.0108,0.0107,0.0125,0.0125,0.0126,0,0.0249,0.0262,0.0257,0.0259,0.0256,0.0238,0.0239,0.023,0.021,0.0208,0.0198,0.017,0.0153,0.0147,0.0148,0.0136,0.0122,0.0135,0.0128,0.0128,0.0128,0.011,0.0108,0.0127,0.0127,0.0127,0.0126,0,0.0263,0.0271,0.0275,0.0277,0.0272,0.0271,0.0258,0.0255,0.0245,0.0233,0.0223,0.0198,0.0183,0.0174,0.0161,0.0155,0.0143,0.0133,0.0124,0.0131,0.0111,0.0109,0.0129,0.0129,0.0128,0.0128,0,0,0.0277,0.0284,0.0286,0.0291,0.0283,0.0281,0.0283,0.0278,0.0284,0.026,0.0262,0.0236,0.0221,0.0211,0.0192,0.0176,0.0162,0.0157,0.0155,0.0143,0.0123,0.0115,0.0111,0.015,0.015,0.015,0.0108,0,0.0288,0.0301,0.0301,0.0311,0.0315,0.0308,0.0313,0.0307,0.0299,0.0296,0.0271,0.0262,0.0236,0.023,0.021,0.0178,0.0157,0.0174,0.0114,0.0112,0.0108,0.0109,0.0149,0.0106,0.0106,0.0105,0.0105,0,0.03,0.0309,0.0323,0.0335,0.0336,0.034,0.0351,0.0354,0.0348,0.034,0.0325,0.0303,0.0281,0.0256,0.0201,0.0213,0.017,0.014,0.0137,0.0119,0.0101,0.0096,0.01,0.0101,0.0101,0.0101,0.0102,0,0.0313,0.0325,0.0341,0.0343,0.0351,0.036,0.0367,0.0368,0.038,0.0371,0.0374,0.0338,0.0326,0.0271,0.0208,0.0203,0.0145,0.013,0.008,0.0079,0.0085,0.0085,0.0085,0.0085,0.0085,0.0085,0.0085,0,0.0323,0.0336,0.0349,0.0357,0.038,0.0379,0.0405,0.0407,0.0417,0.0434,0.04,0.0402,0.0329,0.0287,0.0221,0.0148,0.0153,0.0084,0.0069,0.0098,0.01,0.0083,0.0083,0.0084,0.0084,0.0084,0.0085,0,0.033,0.034,0.036,0.0377,0.0387,0.0403,0.0434,0.0453,0.0459,0.0481,0.0481,0.0452,0.0398,0.032,0.0233,0.0171,0.0097,0.0066,0.0108,0.0095,0.0037,0.0039,0.0007,0.0007,0.0006,0.0006,0.0005,0,0.0334,0.0346,0.0376,0.0392,0.0402,0.0429,0.0454,0.0472,0.0494,0.0512,0.0524,0.0486,0.0452,0.0327,0.0241,0.0114,0.009,0.0044,0.0034,0.0042,0.0029,0.0033,0.0035,0.0005,0.0004,0.0004,0.0004,0,0.034,0.0354,0.037,0.0405,0.0434,0.0468,0.0501,0.0521,0.0548,0.0557,0.0553,0.0491,0.0432,0.0331,0.0233,0.0141,0.0072,0.0039,0.0039,0.0029,0.0038,0.0027,0.0031,0.0002,0.0003,0.0003,0.0003,0,0.0347,0.0358,0.0384,0.0413,0.0453,0.0491,0.051,0.0534,0.0558,0.0575,0.0574,0.0511,0.0477,0.0345,0.0258,0.0166,0.0134,0.0088,0.0085,0.0086,0.0118,0.0142,0.0127,0,0,0,0,0,0.035,0.0362,0.0389,0.0421,0.0462,0.0486,0.0536,0.0554,0.0582,0.058,0.0577,0.052,0.0397,0.0351,0.0257,0.0239,0.0114,0.0123,0.0058,-0.0007,-0.0005,0.0018,0,0,0,0,0,0,0.0352,0.0376,0.0384,0.0425,0.0448,0.0496,0.053,0.055,0.0548,0.0563,0.0503,0.0479,0.0365,0.0448,0.0249,0.0224,0.0165,0.0072,0.0069,-0.0008,-0.0006,-0.0005,0.002,0,0,0,0,0]}]]